Flag for Norway Weather past 2 weeks in Hammerfest, Norway

Now
34 °F

Light rain. Passing clouds.


Feels Like: 28 °F
Forecast: 32 / 37 °F
Wind: 7 mph from South

Location: Hammerfest

Current Time: Feb 27, 2015 at 10:14:33 PM

Latest Report: Feb 27, 2015 at 9:50 PM


Visibility: N/A

Pressure: 29.42 "Hg

Humidity: 93%

Dew point: 32 °F

Location of HammerfestLocation

Historic Weather in Hammerfest — Graph

°F

Hammerfest temperature yesterday

Maximum temperature yesterday: 36 °F (at 9:50 PM)
Minimum temperature yesterday: 27 °F (at 9:50 AM)
Average temperature yesterday: 31 °F

Past Weeks' High & Low Weather Summary

 TemperatureHumidityPressure
High37 °F (Feb 27, 1:50 PM)100% (Feb 14, 4:12 PM)30.27 "Hg (Feb 14, 4:12 PM)
Low18 °F (Feb 13, 10:50 AM)37% (Feb 15, 9:50 AM)28.80 "Hg (Feb 21, 2:50 AM)
Average29 °F77%29.40 "Hg
* Reported Feb 12 8:00 PM — Feb 27 8:50 PM, Hammerfest, Weather by CustomWeather, © 2015

Note: Actual official high and low records may vary slightly from our data, if they occured in-between our weather recording intervals... More about our weather records

Advertising

Hammerfest weather history for previous 24 hours

 ConditionsComfort  
Time TempWeatherWind HumidityBarometerVisibility
8:50 PM
Fri, Feb 27
34 °FLight rain. Partly cloudy.8 mph93%29.45 "HgN/A
7:50 PM34 °FLight rain. Mostly cloudy.5 mph93%29.45 "Hg6 mi
6:50 PM34 °FLight rain. Fog.2 mph93%29.47 "HgN/A
5:50 PM36 °FLight rain. Fog.5 mph81%29.47 "HgN/A
4:50 PM36 °FDrizzle. Overcast.3 mph81%29.47 "HgN/A
3:50 PM36 °FPassing clouds.3 mph81%29.50 "HgN/A
2:50 PM37 °FBroken clouds.6 mph75%29.50 "HgN/A
1:50 PM37 °FBroken clouds.5 mph75%29.50 "HgN/A
12:50 PM36 °FBroken clouds.3 mph81%29.50 "HgN/A
11:50 AM36 °FBroken clouds.5 mph87%29.50 "HgN/A
10:50 AM36 °FScattered showers. Broken clouds.3 mph87%29.50 "HgN/A
9:50 AM34 °FScattered showers. Partly sunny.3 mph87%29.50 "HgN/A
8:50 AM34 °FOvercast.5 mph87%29.50 "HgN/A
7:50 AM34 °FPartly sunny.9 mph87%29.47 "HgN/A
6:50 AM34 °FScattered showers. Partly cloudy.12 mph81%29.47 "HgN/A
5:50 AM36 °FPassing clouds.14 mph70%29.50 "HgN/A
4:50 AM36 °FPassing clouds.17 mph70%29.50 "HgN/A
3:50 AM34 °FPartly cloudy.20 mph75%29.50 "HgN/A
2:50 AM34 °FPassing clouds.15 mph75%29.53 "HgN/A
1:50 AM34 °FPassing clouds.18 mph75%29.56 "HgN/A
12:50 AM34 °FPassing clouds.22 mph81%29.59 "HgN/A
11:50 PM
Thu, Feb 26
34 °FPassing clouds.17 mph75%29.59 "HgN/A
10:50 PM36 °FPassing clouds.20 mph75%29.62 "HgN/A
Weather by CustomWeather, © 2015

See weather overviewHow to use our weather pages